Location: Unspecified
(52.0900°N, 0.0000°E)
Time: 06:57:16
(UTC+00:00)

CZ-4B R/B - Visible Passes

Search period start: 04 April 2026 00:00
Search period end: 14 April 2026 00:00
Orbit: 462 x 564 km, 97.8° (Epoch: 29 March)

Date Brightness Start Highest point End Pass type
(mag) Time Alt. Az. Time Alt. Az. Time Alt. Az.
4 Apr 3.6 19:37:44 10° SSE 19:41:14 84° W 19:44:52 10° NNW visible
5 Apr 3.6 19:21:58 10° SSE 19:25:27 64° ENE 19:29:03 10° N visible
5 Apr 6.6 20:58:20 10° WSW 20:59:53 12° W 21:01:28 10° WNW visible
6 Apr 6.3 20:41:25 10° SW 20:43:55 18° W 20:46:28 10° NW visible
7 Apr 5.7 20:24:57 10° SSW 20:27:57 26° W 20:31:05 10° NW visible
8 Apr 5.0 20:08:42 10° SSW 20:12:02 38° W 20:15:30 10° NNW visible
9 Apr 4.2 19:52:37 10° S 19:56:08 58° WSW 19:59:48 10° NNW visible
10 Apr 3.6 19:36:42 10° SSE 19:40:16 88° WSW 19:44:01 10° NNW visible
11 Apr 3.7 19:20:53 10° SSE 19:24:26 62° ENE 19:28:07 10° N visible
11 Apr 6.5 20:56:58 10° WSW 20:58:50 14° W 21:00:45 10° WNW visible
12 Apr 6.2 20:40:07 10° SW 20:42:48 19° W 20:45:34 10° NW visible
13 Apr 5.6 20:23:37 10° SSW 20:26:47 28° W 20:30:04 10° NW visible
